CZ-3B DEB, 40167

Orbit data source: Space-Track

CZ-3B DEB, 40167 is space debris in HEO originally from a launch on Sat, 04 Sep 2010 UTC launched from the Xichang Space Center, China (XSC). Debris objects in space refer to the collection of defunct objects orbiting the Earth. Examples of debris include non-operational satellites, rocket bodies, and fragments generated from explosions, collisions, or faulty payload assembly.

Loading next visibility...
Identifier
40167, 2010-042U
Orbit
HEO
Country
Flag of CNCN / PRC
Related business
Manufacturer
CALT
Mission
Spacecraft
Bus & Motor
Unknown
Mass
Unknown
Launch date (UTC)
2010-09-04 (15 years ago)
Launch vehicle
Unknown
Launch site
Xichang Space Center, China (XSC)
Object type
Payload
Rocket body
Debris
Shape & HBR
Unknown shape, 0.2 m
Radar Cross Section
Medium (>0.1 m² and <1 m²)

Expand to show TLE details & history
Last TLE update: 5 days ago

TLE from 5 days ago
0 CZ-3B DEB
1 40167U 10042U   25336.11187386 -.00000035  00000-0  00000-0 0  9998
2 40167  27.2348 321.9577 7160647 248.0140  25.9469  1.93642106 91748
Epoch: 2025-12-02T02:41Z
TLE epoch observation values (Epoch: 2025-12-02T02:41:05.901Z)
Latitude
-0.00019°
Longitude
-149.60051°
Altitude
11,657.43 km
Speed
5.435 km/s
True Right ascension
21h 27m 30s
True Declination
0° 00' 01"
Sunlit
Object was in daylight at epoch
Visualization orbit readout
Latitude
Unknown
Longitude
Unknown
Altitude
Unknown
Speed
Unknown
Apparent Right ascension
Unknown
Apparent Declination
Unknown
Sunlit
N/A
Visualization observer readout
Local Sidereal Time
06:25:33
Azimuth
Unknown
Elevation
Unknown
Doppler factor
Unknown
Orbital elements
Apogee altitude
40,286.52 km
Perigee altitude
1,342.868 km
Semi-major axis
27,192.831 km
Eccentricity
0.71606
Inclination
27.2348°
RAAN
321.9577°
Arg. of periapsis
248.014°
True anomaly
112.07771°
Mean anomaly
25.9469°
Eccentric anomaly
62.25858°
Mean motion
0.48402 °/min
Orbital period
743.77 mins
BSTAR
0
Loading maneuver chart data...
Computing Atmospheric mass density...
Loading historical data...
Loading historical data...
Loading historical data...
Loading historical data...
Loading historical data...
Loading historical data...
Loading historical data...

Documentation

Showing up to 5 results
|